User: anonymous   Login
Location: Losili
(4.4086°N, 32.7049°E)
Time: 12:16:20
(UTC+00:00)
Language:

Cosmos 1939 Rocket - Orbit

View from above orbital plane
View from above orbital plane
View from above satellite
View from above satellite

Ground track
Ground track

The orbit data is extracted from the following two-line orbital elements,

1 19046U 88032B   19322.83874914  .00000298  00000-0  26488-4 0  9993
2 19046  97.4194 348.0710 0036786 205.7753 154.1641 15.02618702705475
Epoch (UTC): 18 November 2019 20:07:47
Eccentricity: 0.0036786
inclination: 97.4194°
perigee height: 533 km
apogee height: 584 km
right ascension of ascending node: 348.0710°
argument of perigee: 205.7753°
revolutions per day: 15.02618702
mean anomaly at epoch: 154.1641°
orbit number at epoch: 70547

The dashed part of the orbit path shows where the satellite is in the earth's shadow,  

DLR